Time,TemperatureF,DewpointF,PressureIn,WindDirection,WindDirectionDegrees,WindSpeedMPH,WindSpeedGustMPH,Humidity,HourlyPrecipIn,Conditions,Clouds,dailyrainin,SoftwareType,DateUTC
2013-01-30 00:03:00,61.0,58.0,30.07,SSW,195,3.0,6.0,90,0.00,,,0.00,,2013-01-30 05:03:00,
2013-01-30 00:12:00,61.0,58.0,30.07,SSW,195,3.0,6.0,90,0.00,,,0.00,,2013-01-30 05:12:00,
2013-01-30 00:22:00,60.0,57.0,30.07,SSE,166,4.0,6.0,91,0.00,,,0.00,,2013-01-30 05:22:00,
2013-01-30 00:32:00,60.0,57.0,30.08,SSE,152,4.0,6.0,91,0.00,,,0.00,,2013-01-30 05:32:00,
2013-01-30 00:43:00,60.0,57.0,30.08,SSE,152,4.0,6.0,91,0.00,,,0.00,,2013-01-30 05:43:00,
2013-01-30 00:52:00,60.0,58.0,30.07,SSE,156,4.0,5.0,92,0.00,,,0.00,,2013-01-30 05:52:00,
2013-01-30 01:02:00,60.0,58.0,30.07,SSW,195,3.0,6.0,93,0.00,,,0.00,,2013-01-30 06:02:00,
2013-01-30 01:11:00,60.0,58.0,30.07,SSW,195,3.0,6.0,93,0.00,,,0.00,,2013-01-30 06:11:00,
2013-01-30 01:21:00,60.0,58.0,30.06,SSE,161,4.0,7.0,93,0.00,,,0.00,,2013-01-30 06:21:00,
2013-01-30 01:32:00,60.0,58.0,30.06,SSE,165,3.0,6.0,94,0.00,,,0.00,,2013-01-30 06:32:00,
2013-01-30 01:42:00,60.0,58.0,30.06,SSE,165,3.0,6.0,94,0.00,,,0.00,,2013-01-30 06:42:00,
2013-01-30 01:52:00,60.0,59.0,30.05,SSW,198,3.0,5.0,95,0.00,,,0.00,,2013-01-30 06:52:00,
2013-01-30 02:02:00,60.0,59.0,30.05,South,177,3.0,6.0,95,0.00,,,0.00,,2013-01-30 07:02:00,
2013-01-30 02:11:00,60.0,59.0,30.05,South,177,3.0,6.0,95,0.00,,,0.00,,2013-01-30 07:11:00,
2013-01-30 02:22:00,60.0,59.0,30.05,SSW,195,4.0,7.0,96,0.00,,,0.00,,2013-01-30 07:22:00,
2013-01-30 02:32:00,61.0,60.0,30.04,South,180,3.0,7.0,96,0.00,,,0.00,,2013-01-30 07:32:00,
2013-01-30 02:42:00,61.0,60.0,30.04,South,180,3.0,7.0,96,0.00,,,0.00,,2013-01-30 07:42:00,
2013-01-30 02:52:00,60.0,59.0,30.04,SSE,166,4.0,5.0,96,0.00,,,0.00,,2013-01-30 07:52:00,
2013-01-30 03:02:00,61.0,60.0,30.03,SSE,166,6.0,10.0,97,0.00,,,0.00,,2013-01-30 08:02:00,
2013-01-30 03:11:00,61.0,60.0,30.03,SSE,166,6.0,10.0,97,0.00,,,0.00,,2013-01-30 08:11:00,
2013-01-30 03:22:00,62.0,61.0,30.02,SSW,212,7.0,12.0,96,0.00,,,0.00,,2013-01-30 08:22:00,
2013-01-30 03:32:00,63.0,62.0,30.03,SSW,201,8.0,12.0,95,0.00,,,0.00,,2013-01-30 08:32:00,
2013-01-30 03:42:00,63.0,62.0,30.03,SSW,201,8.0,12.0,95,0.00,,,0.00,,2013-01-30 08:42:00,
2013-01-30 03:52:00,63.0,62.0,30.02,SSW,200,10.0,15.0,95,0.00,,,0.00,,2013-01-30 08:52:00,
2013-01-30 04:02:00,63.0,61.0,30.01,SSW,200,11.0,17.0,94,0.00,,,0.00,,2013-01-30 09:02:00,
2013-01-30 04:11:00,63.0,61.0,30.01,SSW,200,11.0,17.0,94,0.00,,,0.00,,2013-01-30 09:11:00,
2013-01-30 04:22:00,64.0,62.0,30.01,South,187,12.0,18.0,94,0.00,,,0.00,,2013-01-30 09:22:00,
2013-01-30 04:32:00,64.0,62.0,30.01,SW,215,11.0,16.0,94,0.00,,,0.00,,2013-01-30 09:32:00,
2013-01-30 04:42:00,64.0,62.0,30.01,SW,215,11.0,16.0,94,0.00,,,0.00,,2013-01-30 09:42:00,
2013-01-30 04:52:00,64.0,62.0,30.01,SSW,212,8.0,15.0,94,0.00,,,0.00,,2013-01-30 09:52:00,
2013-01-30 05:01:00,64.0,62.0,30.00,SSW,202,7.0,14.0,94,0.00,,,0.00,,2013-01-30 10:01:00,
2013-01-30 05:11:00,64.0,62.0,30.00,SSW,202,7.0,14.0,94,0.00,,,0.00,,2013-01-30 10:11:00,
2013-01-30 05:21:00,64.0,62.0,29.98,SSW,192,10.0,15.0,94,0.00,,,0.00,,2013-01-30 10:21:00,
2013-01-30 05:32:00,64.0,62.0,29.98,SSE,162,10.0,15.0,94,0.00,,,0.00,,2013-01-30 10:32:00,
2013-01-30 05:42:00,64.0,62.0,29.98,SSE,162,10.0,15.0,94,0.00,,,0.00,,2013-01-30 10:42:00,
2013-01-30 05:52:00,63.0,61.0,29.98,SSW,194,7.0,14.0,94,0.00,,,0.00,,2013-01-30 10:52:00,
2013-01-30 06:02:00,63.0,62.0,29.98,SSE,166,7.0,15.0,95,0.00,,,0.00,,2013-01-30 11:02:00,
2013-01-30 06:11:00,63.0,62.0,29.98,SSE,166,7.0,15.0,95,0.00,,,0.00,,2013-01-30 11:11:00,
2013-01-30 06:22:00,63.0,62.0,29.98,SSW,205,8.0,15.0,95,0.00,,,0.00,,2013-01-30 11:22:00,
2013-01-30 06:33:00,63.0,62.0,29.97,South,176,8.0,15.0,95,0.00,,,0.00,,2013-01-30 11:33:00,
2013-01-30 06:42:00,63.0,62.0,29.97,South,176,8.0,15.0,95,0.00,,,0.00,,2013-01-30 11:42:00,
2013-01-30 06:52:00,63.0,62.0,29.97,SSE,156,6.0,20.0,95,0.00,,,0.00,,2013-01-30 11:52:00,
2013-01-30 07:02:00,64.0,63.0,29.96,South,169,8.0,14.0,95,0.00,,,0.00,,2013-01-30 12:02:00,
2013-01-30 07:12:00,64.0,63.0,29.96,South,169,8.0,14.0,95,0.00,,,0.00,,2013-01-30 12:12:00,
2013-01-30 07:22:00,64.0,63.0,29.96,SSW,198,8.0,17.0,95,0.00,,,0.00,,2013-01-30 12:22:00,
2013-01-30 07:33:00,64.0,63.0,29.96,SW,222,9.0,15.0,95,0.00,,,0.00,,2013-01-30 12:33:00,
2013-01-30 07:43:00,64.0,63.0,29.96,SW,222,9.0,15.0,95,0.00,,,0.00,,2013-01-30 12:43:00,
2013-01-30 08:03:00,64.0,62.0,29.95,SSW,210,8.0,17.0,94,0.00,,,0.00,,2013-01-30 13:03:00,
2013-01-30 08:12:00,64.0,62.0,29.95,SSW,210,8.0,17.0,94,0.00,,,0.00,,2013-01-30 13:12:00,
2013-01-30 08:23:00,65.0,63.0,29.95,SSW,194,12.0,19.0,94,0.00,,,0.00,,2013-01-30 13:23:00,
2013-01-30 08:33:00,65.0,63.0,29.95,SSW,200,8.0,20.0,93,0.00,,,0.00,,2013-01-30 13:33:00,
2013-01-30 08:43:00,65.0,63.0,29.95,SSW,200,8.0,20.0,93,0.00,,,0.00,,2013-01-30 13:43:00,
2013-01-30 08:53:00,66.0,64.0,29.94,SW,232,13.0,22.0,92,0.00,,,0.00,,2013-01-30 13:53:00,
2013-01-30 09:03:00,66.0,63.0,29.93,SSW,203,14.0,22.0,90,0.00,,,0.00,,2013-01-30 14:03:00,
2013-01-30 09:12:00,66.0,63.0,29.93,SSW,203,14.0,22.0,90,0.00,,,0.00,,2013-01-30 14:12:00,
2013-01-30 09:23:00,66.0,63.0,29.93,SSE,156,14.0,22.0,90,0.00,,,0.00,,2013-01-30 14:23:00,
2013-01-30 09:33:00,67.0,64.0,29.92,SSW,212,13.0,25.0,89,0.00,,,0.00,,2013-01-30 14:33:00,
2013-01-30 09:42:00,67.0,64.0,29.92,SSW,212,13.0,25.0,89,0.00,,,0.00,,2013-01-30 14:42:00,
2013-01-30 09:53:00,67.0,63.0,29.92,SSE,163,13.0,23.0,88,0.00,,,0.00,,2013-01-30 14:53:00,
2013-01-30 10:03:00,67.0,63.0,29.91,South,186,15.0,24.0,87,0.00,,,0.00,,2013-01-30 15:03:00,
2013-01-30 10:12:00,67.0,63.0,29.91,South,186,15.0,24.0,87,0.00,,,0.00,,2013-01-30 15:12:00,
2013-01-30 10:23:00,68.0,64.0,29.91,SW,219,16.0,22.0,87,0.00,,,0.00,,2013-01-30 15:23:00,
2013-01-30 10:33:00,69.0,64.0,29.91,South,169,16.0,21.0,85,0.00,,,0.00,,2013-01-30 15:33:00,
2013-01-30 10:43:00,69.0,64.0,29.91,South,169,16.0,21.0,85,0.00,,,0.00,,2013-01-30 15:43:00,
2013-01-30 10:53:00,69.0,64.0,29.91,SW,218,15.0,27.0,85,0.00,,,0.00,,2013-01-30 15:53:00,
2013-01-30 11:03:00,69.0,64.0,29.90,South,188,16.0,26.0,85,0.00,,,0.00,,2013-01-30 16:03:00,
2013-01-30 11:12:00,69.0,64.0,29.90,South,188,16.0,26.0,85,0.00,,,0.00,,2013-01-30 16:12:00,
2013-01-30 11:23:00,69.0,64.0,29.89,South,174,18.0,29.0,85,0.00,,,0.00,,2013-01-30 16:23:00,
2013-01-30 11:32:00,69.0,64.0,29.89,SSW,203,15.0,25.0,84,0.00,,,0.00,,2013-01-30 16:32:00,
2013-01-30 11:42:00,69.0,64.0,29.89,SSW,203,15.0,25.0,84,0.00,,,0.00,,2013-01-30 16:42:00,
2013-01-30 11:52:00,69.0,64.0,29.89,SSW,203,15.0,25.0,84,0.00,,,0.00,,2013-01-30 16:52:00,
2013-01-30 12:02:00,69.0,64.0,29.88,SSW,207,13.0,22.0,84,0.00,,,0.00,,2013-01-30 17:02:00,
2013-01-30 12:13:00,69.0,64.0,29.88,SSW,207,13.0,22.0,84,0.00,,,0.00,,2013-01-30 17:13:00,
2013-01-30 12:23:00,69.0,64.0,29.86,SSE,162,11.0,21.0,85,0.00,,,0.00,,2013-01-30 17:23:00,
2013-01-30 12:33:00,68.0,64.0,29.85,SSE,164,15.0,21.0,88,0.00,,,0.00,,2013-01-30 17:33:00,
2013-01-30 12:43:00,68.0,64.0,29.85,SSE,164,15.0,21.0,88,0.00,,,0.00,,2013-01-30 17:43:00,
2013-01-30 12:53:00,68.0,65.0,29.84,SSE,149,12.0,18.0,90,0.00,,,0.00,,2013-01-30 17:53:00,
2013-01-30 13:03:00,67.0,64.0,29.83,SSW,204,11.0,19.0,91,0.00,,,0.00,,2013-01-30 18:03:00,
2013-01-30 13:13:00,67.0,64.0,29.83,SSW,204,11.0,19.0,91,0.00,,,0.00,,2013-01-30 18:13:00,
2013-01-30 13:23:00,67.0,64.0,29.82,South,184,8.0,16.0,91,0.00,,,0.00,,2013-01-30 18:23:00,
2013-01-30 13:33:00,68.0,65.0,29.80,South,169,9.0,20.0,90,0.00,,,0.00,,2013-01-30 18:33:00,
2013-01-30 13:43:00,68.0,65.0,29.80,South,169,9.0,20.0,90,0.00,,,0.00,,2013-01-30 18:43:00,
2013-01-30 13:53:00,69.0,65.0,29.79,SSW,195,11.0,21.0,88,0.00,,,0.00,,2013-01-30 18:53:00,
2013-01-30 14:03:00,69.0,65.0,29.78,SSW,210,12.0,19.0,87,0.00,,,0.00,,2013-01-30 19:03:00,
2013-01-30 14:13:00,69.0,65.0,29.78,SSW,210,12.0,19.0,87,0.00,,,0.00,,2013-01-30 19:13:00,
2013-01-30 14:22:00,69.0,65.0,29.77,SSW,205,13.0,20.0,86,0.00,,,0.00,,2013-01-30 19:22:00,
2013-01-30 14:33:00,70.0,66.0,29.76,South,169,14.0,25.0,86,0.00,,,0.00,,2013-01-30 19:33:00,
2013-01-30 14:43:00,70.0,66.0,29.76,South,169,14.0,25.0,86,0.00,,,0.00,,2013-01-30 19:43:00,
2013-01-30 14:53:00,71.0,66.0,29.74,SE,146,12.0,28.0,84,0.00,,,0.00,,2013-01-30 19:53:00,
2013-01-30 15:03:00,71.0,65.0,29.73,SSW,207,16.0,27.0,82,0.00,,,0.00,,2013-01-30 20:03:00,
2013-01-30 15:12:00,71.0,65.0,29.73,SSW,207,16.0,27.0,82,0.00,,,0.00,,2013-01-30 20:12:00,
2013-01-30 15:22:00,72.0,66.0,29.72,SSW,200,12.0,25.0,82,0.00,,,0.00,,2013-01-30 20:22:00,
2013-01-30 15:33:00,72.0,65.0,29.71,South,190,14.0,21.0,80,0.00,,,0.00,,2013-01-30 20:33:00,
2013-01-30 15:42:00,72.0,65.0,29.71,South,190,14.0,21.0,80,0.00,,,0.00,,2013-01-30 20:42:00,
2013-01-30 15:53:00,72.0,65.0,29.70,SSE,160,14.0,24.0,79,0.00,,,0.00,,2013-01-30 20:53:00,
2013-01-30 16:03:00,72.0,65.0,29.70,South,172,11.0,27.0,79,0.00,,,0.00,,2013-01-30 21:03:00,
2013-01-30 16:12:00,72.0,65.0,29.70,South,172,11.0,27.0,79,0.00,,,0.00,,2013-01-30 21:12:00,
2013-01-30 16:23:00,72.0,65.0,29.69,South,172,12.0,27.0,78,0.00,,,0.00,,2013-01-30 21:23:00,
2013-01-30 16:32:00,72.0,65.0,29.67,SW,233,17.0,27.0,78,0.00,,,0.00,,2013-01-30 21:32:00,
2013-01-30 16:42:00,72.0,65.0,29.67,SW,233,17.0,27.0,78,0.00,,,0.00,,2013-01-30 21:42:00,
2013-01-30 16:53:00,72.0,64.0,29.67,SSW,198,16.0,38.0,77,0.00,,,0.00,,2013-01-30 21:53:00,
2013-01-30 17:03:00,72.0,64.0,29.67,South,188,14.0,26.0,76,0.00,,,0.00,,2013-01-30 22:03:00,
2013-01-30 17:12:00,72.0,64.0,29.67,South,188,14.0,26.0,76,0.00,,,0.00,,2013-01-30 22:12:00,
2013-01-30 17:22:00,71.0,63.0,29.66,SSW,208,13.0,26.0,77,0.00,,,0.00,,2013-01-30 22:22:00,
2013-01-30 17:32:00,71.0,63.0,29.66,South,172,13.0,28.0,77,0.00,,,0.00,,2013-01-30 22:32:00,
2013-01-30 17:42:00,71.0,63.0,29.66,South,172,13.0,28.0,77,0.00,,,0.00,,2013-01-30 22:42:00,
2013-01-30 17:53:00,71.0,63.0,29.65,SSW,194,15.0,29.0,77,0.00,,,0.00,,2013-01-30 22:53:00,
2013-01-30 18:02:00,71.0,63.0,29.65,South,188,11.0,33.0,77,0.00,,,0.00,,2013-01-30 23:02:00,
2013-01-30 18:12:00,71.0,63.0,29.65,South,188,11.0,33.0,77,0.00,,,0.00,,2013-01-30 23:12:00,
2013-01-30 18:22:00,71.0,63.0,29.65,SSW,208,14.0,26.0,77,0.00,,,0.00,,2013-01-30 23:22:00,
2013-01-30 18:33:00,71.0,63.0,29.63,SSW,205,12.0,27.0,77,0.00,,,0.00,,2013-01-30 23:33:00,
2013-01-30 18:42:00,71.0,63.0,29.63,SSW,205,12.0,27.0,77,0.00,,,0.00,,2013-01-30 23:42:00,
2013-01-30 18:52:00,71.0,63.0,29.61,SE,137,14.0,29.0,76,0.00,,,0.00,,2013-01-30 23:52:00,
2013-01-30 19:02:00,70.0,62.0,29.61,SE,136,14.0,24.0,76,0.00,,,0.00,,2013-01-31 00:02:00,
2013-01-30 19:11:00,70.0,62.0,29.61,SE,136,14.0,24.0,76,0.00,,,0.00,,2013-01-31 00:11:00,
2013-01-30 19:22:00,71.0,63.0,29.59,SSW,211,18.0,31.0,75,0.00,,,0.00,,2013-01-31 00:22:00,
2013-01-30 19:32:00,71.0,63.0,29.59,SSW,200,17.0,32.0,75,0.00,,,0.00,,2013-01-31 00:32:00,
2013-01-30 19:42:00,71.0,63.0,29.59,SSW,200,17.0,32.0,75,0.00,,,0.00,,2013-01-31 00:42:00,
2013-01-30 19:53:00,70.0,62.0,29.58,South,179,17.0,37.0,75,0.00,,,0.00,,2013-01-31 00:53:00,
2013-01-30 20:02:00,70.0,62.0,29.57,SW,219,20.0,34.0,75,0.00,,,0.00,,2013-01-31 01:02:00,
2013-01-30 20:12:00,70.0,62.0,29.57,SW,219,20.0,34.0,75,0.00,,,0.00,,2013-01-31 01:12:00,
2013-01-30 20:22:00,70.0,62.0,29.56,South,172,15.0,26.0,76,0.00,,,0.00,,2013-01-31 01:22:00,
2013-01-30 20:32:00,70.0,62.0,29.55,SSW,198,17.0,32.0,76,0.00,,,0.00,,2013-01-31 01:32:00,
2013-01-30 20:42:00,70.0,62.0,29.55,SSW,198,17.0,32.0,76,0.00,,,0.00,,2013-01-31 01:42:00,
2013-01-30 20:53:00,70.0,62.0,29.55,South,169,18.0,32.0,77,0.00,,,0.00,,2013-01-31 01:53:00,
2013-01-30 21:01:00,70.0,63.0,29.55,South,191,15.0,27.0,79,0.00,,,0.00,,2013-01-31 02:01:00,
2013-01-30 21:12:00,70.0,63.0,29.55,South,191,15.0,27.0,79,0.00,,,0.00,,2013-01-31 02:12:00,
2013-01-30 21:22:00,70.0,63.0,29.54,SW,228,18.0,33.0,79,0.00,,,0.00,,2013-01-31 02:22:00,
2013-01-30 21:32:00,70.0,64.0,29.52,South,186,14.0,34.0,80,0.00,,,0.00,,2013-01-31 02:32:00,
2013-01-30 21:42:00,70.0,64.0,29.52,South,186,14.0,34.0,80,0.00,,,0.00,,2013-01-31 02:42:00,
2013-01-30 21:52:00,70.0,64.0,29.52,South,186,14.0,34.0,80,0.00,,,0.00,,2013-01-31 02:52:00,
2013-01-30 22:03:00,70.0,64.0,29.50,South,172,20.0,34.0,80,0.00,,,0.00,,2013-01-31 03:03:00,
2013-01-30 22:11:00,70.0,64.0,29.50,South,172,20.0,34.0,80,0.00,,,0.00,,2013-01-31 03:11:00,
2013-01-30 22:22:00,70.0,64.0,29.49,SW,215,23.0,32.0,80,0.00,,,0.00,,2013-01-31 03:22:00,
2013-01-30 22:32:00,70.0,64.0,29.48,South,174,15.0,28.0,80,0.00,,,0.00,,2013-01-31 03:32:00,
2013-01-30 22:42:00,70.0,64.0,29.48,South,174,15.0,28.0,80,0.00,,,0.00,,2013-01-31 03:42:00,
2013-01-30 22:52:00,70.0,64.0,29.47,SSW,208,21.0,38.0,81,0.00,,,0.00,,2013-01-31 03:52:00,
2013-01-30 23:02:00,69.0,65.0,29.45,SW,219,15.0,29.0,86,0.00,,,0.00,,2013-01-31 04:02:00,
2013-01-30 23:11:00,69.0,65.0,29.45,SW,219,15.0,29.0,86,0.00,,,0.00,,2013-01-31 04:11:00,
2013-01-30 23:22:00,68.0,64.0,29.44,SSW,212,14.0,32.0,87,0.00,,,0.00,,2013-01-31 04:22:00,
2013-01-30 23:32:00,69.0,65.0,29.43,SSW,208,16.0,31.0,87,0.00,,,0.00,,2013-01-31 04:32:00,
2013-01-30 23:42:00,69.0,65.0,29.43,SSW,208,16.0,31.0,87,0.00,,,0.00,,2013-01-31 04:42:00,
2013-01-30 23:52:00,68.0,64.0,29.42,South,184,17.0,30.0,88,0.01,,,0.01,,2013-01-31 04:52:00,